Regional Weather Roundup
Issued by NWS Northern Indiana

Home | Current Version | Previous Version | Graphics & Text | Print | Product List | Glossary On
Versions: 1 2 3 4 5 6 7 8 9 10 11 12 13 14 15 16 17 18 19 20 21 22 23 24 25 26 27 28 29 30 31 32 33 34 35 36 37 38 39 40 41 42 43 44 45 46 47 48 49 50
000
ASUS43 KIWX 260110
RWRIWX

KIWX WEATHER ROUNDUP
NATIONAL WEATHER SERVICE NORTHERN INDIANA
900 PM EDT TUE APR 25 2017

NOTE: "FAIR" INDICATES FEW OR NO CLOUDS BELOW 12,000 FEET WITH NO
SIGNIFICANT WEATHER AND/OR OBSTRUCTIONS TO VISIBILITY.

* THESE STATIONS ARE NOT UNDER NWS QUALITY CONTROL. THEY ALSO MAY NOT
  REPORT WEATHER SUCH AS PRECIPITATION OR FOG.

INZ001>027-260200-
NORTHERN INDIANA

CITY           SKY/WX    TMP DP  RH WIND       PRES   REMARKS
GARY*          CLOUDY    75  48  38 SE12      29.57R
VALPARAISO     CLOUDY    72  54  53 SE8       29.59R
MICHIGAN CITY* CLOUDY    70  52  52 SE5       29.59S
LAPORTE*       PTCLDY    69  54  58 SE8       29.59S
KNOX*          CLOUDY    70  30  23 SE10      29.58S
SOUTH BEND     CLOUDY    70  54  56 SE12      29.61S
ELKHART*       PTCLDY    68  54  60 SE6       29.62S
GOSHEN         PTCLDY    68  53  58 SE6       29.62S
MONTICELLO*    PTCLDY    71  53  52 SE7       29.58R
LOGANSPORT*    CLOUDY    68  54  60 SE9       29.61S
ROCHESTER*     CLOUDY    72  54  53 S5        29.62S
WARSAW*        CLOUDY    68  54  60 SE3       29.62S
ANGOLA*        CLEAR     70  54  56 SE5       29.64S
FORT WAYNE     MOCLDY    70  53  54 SE9       29.64S
HUNTINGTON*    CLOUDY    70  54  56 S6        29.63S
PERU/GRISSOM   MOCLDY    68  56  65 SE9       29.60S
MARION*        CLOUDY    70  55  60 S8        29.64S

$$
INZ028>050-260200-
CENTRAL INDIANA

CITY           SKY/WX    TMP DP  RH WIND       PRES   REMARKS
LAFAYETTE      CLEAR     70  54  56 SE7       29.58R
KOKOMO*        MOCLDY    69  56  62 SE10      29.63S
MUNCIE*        CLOUDY    72  54  53 S8        29.65R
INDIANAPOLIS   MOCLDY    70  54  56 SE15      29.61F

$$
MIZ043>046-050>051-056>058-064>065-071>073-077>080-260200-
SOUTHWEST LOWER MICHIGAN

CITY           SKY/WX    TMP DP  RH WIND       PRES   REMARKS
BATTLE CREEK   PTCLDY    69  54  58 SE5       29.65S
BENTON HARBOR  PTCLDY    67  53  61 E7        29.59F
COLDWATER*     PTCLDY    67  55  63 E6        29.65R
HILLSDALE*     CLEAR     61  52  72 E9        29.67S
HOLLAND        CLOUDY    66  55  67 CALM      29.64R
GRAND RAPIDS   MOCLDY    67  56  67 SE7       29.64S
KALAMAZOO      PTCLDY    69  52  54 SE5       29.64R
STURGIS*       MOCLDY    69  54  57 SE6       29.63R
THREE RIVERS*  FAIR      69  53  56 SE5       29.63F

$$
OHZ001>008-015>018-024>025-260200-
NORTHWEST OHIO

CITY           SKY/WX    TMP DP  RH WIND       PRES   REMARKS
WAUSEON*       FAIR      59  54  82 E12       29.68S
DEFIANCE       CLEAR     65  54  67 E9        29.66S
FINDLAY        CLEAR     70  50  49 SE7       29.67S
TOLEDO EXPRESS CLEAR     58  53  84 E7        29.69S
TOLEDO METCALF CLEAR     57  52  83 E9        29.70F
LIMA           CLEAR     67  53  61 SE8       29.68R

$$
AND FOR LAKE MICHIGAN COASTAL AND OPEN LAKE BUOY OBSERVATIONS

STATION/POSITION TEMP    WIND        PRES    VSBY  WAVE
                 AIR SEA DIR/SP/G                  HT/PER
                 (F)     (DEG/KT/KT) (MB)    (MI)  (FT/S)
CALUMET HARBOR    75     130/ 11/ 16 1000.6R
MICHIGAN CITY     73     120/  7/ 10   N/A
BURNS HARBOR      74     130/  9/ 17 1001.7R
SOUTH LAKE BUOY   49 42   70/ 10/ 12 1002.5          1
4 MI NW BRIDGMAN  63 50  140/  6/  8 1002.1          1

$$
&&




USA.gov is the U.S. government's official web portal to all federal, state and local government web resources and services.